OH2NJR Weather Reports


time (UTC)temp
F
wind
direction
speed
knots
gust
knots
rain 1hr
in
rain 24hr
in
rain mn
in
humidity
%
barometer
mb
20260507065608 49 18 0.9 1.7 0.00 0.00 0.00 37 1015.9
20260507063928 48 49 0.9 1.7 0.00 0.00 0.00 37 1015.8
20260507062228 49 84 0.9 1.7 0.00 0.00 0.00 37 1015.7
20260507060358 48 106 1.7 2.6 0.00 0.00 0.00 35 1015.7
20260507054628 48 122 0.0 0.9 0.00 0.00 0.00 36 1015.7
20260507052823 47 107 2.6 4.3 0.00 0.00 0.00 35 1015.7
20260507051001 46 8 0.9 1.7 0.00 0.00 0.00 37 1015.7
20260507050958 46 8 0.9 1.7 0.00 0.00 0.00 37 1015.7
20260507045318 39 348 0.9 1.7 0.00 0.00 0.00 48 1015.8
20260507043428 39 353 0.0 1.7 0.00 0.00 0.00 48 1015.8
20260507041733 38 40 0.9 1.7 0.00 0.00 0.00 49 1015.8
20260507035813 38 20 0.9 2.6 0.00 0.00 0.00 50 1015.6
20260507034138 37 7 0.9 2.6 0.00 0.00 0.00 50 1015.5
20260507032138 37 38 0.9 2.6 0.00 0.00 0.00 50 1015.3
20260507030328 37 167 0.0 0.9 0.00 0.00 0.00 50 1015.5
20260507024603 38 38 0.9 2.6 0.00 0.00 0.00 49 1015.5
20260507022848 38 36 0.0 0.9 0.00 0.00 0.00 48 1015.5
20260507021100 38 65 0.0 0.0 0.00 0.00 0.00 50 1015.4
20260507015235 38 18 0.0 0.9 0.00 0.00 0.00 48 1015.3
20260507013453 38 156 0.0 0.9 0.00 0.00 0.00 49 1015.3
20260507011653 39 205 0.0 0.9 0.00 0.00 0.00 48 1015.3
20260507005844 39 273 0.9 1.7 0.00 0.00 0.00 46 1015.0
20260507004018 40 247 0.0 0.9 0.00 0.00 0.00 49 1015.0
20260507002218 40 357 0.0 0.9 0.00 0.00 0.00 45 1015.0
20260507000443 41 2 0.0 1.7 0.00 0.00 0.00 43 1015.0
20260506234708 40 337 0.9 3.5 0.00 0.00 0.00 46 1015.0
20260506232833 41 315 0.0 1.7 0.00 0.00 0.00 48 1015.0
20260506231024 41 51 0.0 0.9 0.00 0.00 0.00 52 1015.0
20260506225123 41 316 0.0 0.9 0.00 0.00 0.00 56 1014.9
20260506223348 41 331 0.0 0.9 0.00 0.00 0.00 63 1014.8
20260506221638 40 335 0.0 1.7 0.00 0.00 0.00 80 1014.8
20260506220028 40 62 0.0 0.9 0.00 0.00 0.00 87 1014.7
20260506214033 40 53 0.0 0.0 0.00 0.00 0.00 85 1014.6
20260506212328 41 38 0.9 0.9 0.00 0.00 0.00 84 1014.6
20260506210351 40 39 0.0 0.9 0.00 0.00 0.00 85 1.0
20260506210348 40 39 0.0 0.9 0.00 0.00 0.00 85 1014.5
20260506204548 43 192 0.0 0.9 0.00 0.00 0.00 72 1014.4
20260506202828 43 252 0.0 0.0 0.00 0.00 0.00 73 1014.4
20260506201053 43 211 0.9 1.7 0.00 0.00 0.00 70 1014.2
20260506195321 43 130 0.0 0.0 0.00 0.00 0.00 68 1014.2
20260506193343 44 182 0.0 0.9 0.00 0.00 0.00 66 1014.2
20260506191539 44 107 0.9 0.0 0.00 0.00 0.00 66 1014.2
20260506191534 44 107 0.9 0.9 0.00 0.00 0.00 66 1014.2
20260506185533 44 160 0.9 1.7 0.00 0.00 0.00 64 1014.2
20260506183550 44 209 2.6 3.5 0.00 0.00 0.00 65 1014.2
20260506181833 45 200 2.6 4.3 0.00 0.00 0.00 63 1014.1
20260506180158 46 200 5.2 7.8 0.00 0.00 0.00 62 1014.2
20260506174533 46 200 3.5 5.2 0.00 0.00 0.00 55 1014.1
20260506172658 47 173 1.7 4.3 0.00 0.00 0.00 53 1014.0
20260506170813 48 197 2.6 4.3 0.00 0.00 0.00 51 1014.0
20260506165149 48 157 0.9 3.5 0.00 0.00 0.00 51
20260506165143 48 157 0.9 3.5 0.00 0.00 0.00 51 1013.9
20260506163413 48 190 3.5 7.8 0.00 0.00 0.00 50 1013.8
20260506161803 47 113 1.7 4.3 0.00 0.00 0.00 55 1013.8
20260506155953 47 214 2.6 7.0 0.00 0.00 0.00 52 1013.7
20260506154253 46 155 1.7 4.3 0.00 0.00 0.00 56 1013.9
20260506152623 46 178 2.6 6.1 0.00 0.00 0.00 52 1014.0
20260506150838 46 202 7.0 10.4 0.00 0.00 0.00 53 1014.0
20260506145221 47 195 6.1 11.3 0.00 0.00 0.00 50 1014.0
20260506145218 47 195 6.1 11.3 0.00 0.00 0.00 50 1014.0
20260506143258 48 126 2.6 5.2 0.00 0.00 0.00 50 1013.8
20260506141520 48 189 4.3 10.4 0.00 0.00 0.00 47 1013.9
20260506135618 49 195 2.6 6.1 0.00 0.00 0.00 46 1013.9
20260506133846 48 168 2.6 5.2 0.00 0.00 0.00 49 1013.9
20260506131943 48 202 2.6 7.8 0.00 0.00 0.00 49 1013.7
20260506130343 48 182 2.6 6.1 0.00 0.00 0.00 51 1013.8
20260506124638 45 193 3.5 7.0 0.00 0.00 0.00 61 1014.0
20260506122848 44 203 7.8 13.0 0.00 0.00 0.00 63 1013.8
20260506121242 45 199 6.1 12.2 0.00 0.00 0.00 62 1013.8
20260506115543 44 199 7.8 13.9 0.00 0.00 0.00 69 1013.8
20260506115538 44 199 7.8 13.9 0.00 0.00 0.00 69 1013.8
20260506113643 45 190 4.3 11.3 0.00 0.00 0.00 60 1013.8
20260506112013 47 192 5.2 11.3 0.00 0.00 0.00 58 1013.7
20260506110203 45 196 9.6 14.8 0.00 0.00 0.00 64 13.7
20260506110200 45 196 9.6 14.8 0.00 0.00 0.00 64 1013.7
20260506104604 46 199 5.2 10.4 0.00 0.00 0.00 58 1013.7
20260506104558 46 199 5.2 10.4 0.00 0.00 0.00 58 1013.7
20260506102718 46 205 3.5 7.0 0.00 0.00 0.00 60 1013.7
20260506100723 51 128 1.7 4.3 0.00 0.00 0.00 47 1013.6
20260506094751 0 206 3.5 7.8 0.00 0.00 0.00 46 1013.4
20260506094748 50 206 3.5 7.8 0.00 0.00 0.00 46 1013.4
20260506092943 51 183 1.7 4.3 0.00 0.00 0.00 30 1013.3
20260506091113 50 357 1.7 3.5 0.00 0.00 0.00 31 1013.3
20260506085233 47 341 2.6 5.2 0.00 0.00 0.00 44 1013.0
20260506083608 48 291 1.7 3.5 0.00 0.00 0.00 41 1013.0
20260506081738 47 299 2.6 8.7 0.00 0.00 0.00 44 1012.9
20260506072321 47 62 2.6 0.0 0.00 0.00 0.00 49 1012.6
20260506072318 47 62 2.6 4.3 0.00 0.00 0.00 49 1012.6
20260506070430 46 284 1.7 5.2 0.00 0.00 0.00 49 1012.5